Laramie, WY

2:23 AM MDT on August 30, 2016 (GMT -0600)
Laramie Regional

Weather History for KLAR - October, 2013

Change the Weather History Date:

Wednesday, October 2, 2013

  Actual Average Record
Temperature  
Mean Temperature 52 °F 47 °F  
Max Temperature 67 °F 61 °F 77 °F (1992)
Min Temperature 36 °F 32 °F 20 °F (1977)
Degree Days  
Heating Degree Days 13 18  
Month to date heating degree days 24 36  
Since 1 July heating degree days 348 561  
Cooling Degree Days 0 0  
Month to date cooling degree days 0 0  
Year to date cooling degree days 162 67  
Growing Degree Days 2 (Base 50)    
Moisture  
Dew Point 33 °F    
Average Humidity 50    
Maximum Humidity 76    
Minimum Humidity 24    
Precipitation  
Precipitation 0.00 in 0.04 in 0.25 in (1966)
Month to date precipitation 0.00 0.07  
Year to date precipitation 9.38 9.33  
Sea Level Pressure  
Sea Level Pressure 29.81 in    
Wind  
Wind Speed 12 mph (SSE)    
Max Wind Speed 29 mph    
Max Gust Speed 37 mph    
Visibility 10 miles    
Events      
T = Trace of Precipitation, MM = Missing Value Source: NWS Daily Summary

Daily Weather History Graph

Daily Weather History Graph

Search for Another Location

Airport or City:

Trip Planner

Search our weather history database for the weather conditions in past years. The results will help you decide how hot, cold, wet, or windy it might be!

Date:

Astronomy

Oct. 02, 2013 Rise Set
Actual Time 7:00 AM MDT 6:42 PM MDT
Civil Twilight 6:33 AM MDT 7:09 PM MDT
Nautical Twilight 6:01 AM MDT 7:41 PM MDT
Astronomical Twilight 5:28 AM MDT 8:14 PM MDT
Moon 4:35 AM MDT (10/2) 5:20 PM MDT (10/2)
Length of Visible Light 12h 36m
Length of Day
11h 41m
Waning Crescent, 6% of the Moon is Illuminated
Oct 2
Waning Crescent
Oct 4
New
Oct 11
First Quarter
Oct 18
Full
Oct 26
Last Quarter

Hourly Weather History & Observations

Time (MDT) Temp. Windchill Dew Point Humidity Pressure Visibility Wind Dir Wind Speed Gust Speed Precip Events Conditions
12:53 AM 45.0 °F 39.7 °F 37.0 °F 74% 29.79 in 10.0 mi South 10.4 mph - N/A   Clear
1:53 AM 43.0 °F 38.2 °F 34.0 °F 71% 29.81 in 10.0 mi SW 8.1 mph - N/A   Clear
2:53 AM 42.1 °F 40.2 °F 33.1 °F 70% 29.80 in 10.0 mi South 3.5 mph - N/A   Clear
3:53 AM 42.1 °F 38.4 °F 32.0 °F 67% 29.80 in 10.0 mi SE 5.8 mph - N/A   Clear
4:53 AM 39.9 °F 35.1 °F 30.9 °F 70% 29.86 in 10.0 mi SSE 6.9 mph - N/A   Clear
5:53 AM 37.9 °F 31.5 °F 30.0 °F 73% 29.88 in 10.0 mi SSE 9.2 mph - N/A   Clear
6:53 AM 39.9 °F 35.1 °F 28.9 °F 65% 29.91 in 10.0 mi SE 6.9 mph - N/A   Clear
7:53 AM 45.0 °F 41.2 °F 30.9 °F 58% 29.90 in 10.0 mi South 6.9 mph - N/A   Mostly Cloudy
8:53 AM 48.0 °F - 34.0 °F 58% 29.89 in 10.0 mi Calm Calm - N/A   Clear
9:53 AM 53.1 °F - 34.0 °F 48% 29.88 in 10.0 mi West 4.6 mph - N/A   Clear
10:53 AM 57.0 °F - 32.0 °F 39% 29.86 in 10.0 mi WNW 4.6 mph - N/A   Clear
11:53 AM 59.0 °F - 30.9 °F 35% 29.85 in 10.0 mi WNW 6.9 mph - N/A   Clear
12:53 PM 62.1 °F - 30.0 °F 30% 29.83 in 10.0 mi Variable 3.5 mph - N/A   Clear
1:53 PM 64.9 °F - 27.0 °F 24% 29.78 in 10.0 mi SE 5.8 mph - N/A   Clear
2:53 PM 66.0 °F - 28.9 °F 25% 29.77 in 10.0 mi ESE 13.8 mph - N/A   Mostly Cloudy
3:53 PM 64.0 °F - 36.0 °F 35% 29.76 in 10.0 mi SE 19.6 mph 27.6 mph N/A   Partly Cloudy
4:53 PM 60.1 °F - 37.0 °F 42% 29.78 in 10.0 mi ESE 18.4 mph 27.6 mph N/A   Clear
5:53 PM 55.0 °F - 36.0 °F 49% 29.80 in 10.0 mi ESE 18.4 mph - N/A   Clear
6:53 PM 51.1 °F - 35.1 °F 54% 29.81 in 10.0 mi East 11.5 mph - N/A   Clear
7:53 PM 50.0 °F - 34.0 °F 54% 29.79 in 10.0 mi SE 17.3 mph 25.3 mph N/A   Clear
8:53 PM 50.0 °F - 34.0 °F 54% 29.79 in 10.0 mi SE 21.9 mph 27.6 mph N/A   Clear
9:53 PM 48.9 °F - 35.1 °F 59% 29.74 in 10.0 mi SSE 23.0 mph 29.9 mph N/A   Clear
10:53 PM 46.9 °F - 36.0 °F 66% 29.73 in 10.0 mi SSE 19.6 mph - N/A   Clear
11:53 PM 46.0 °F 37.6 °F 36.0 °F 68% 29.70 in 10.0 mi SSE 24.2 mph 32.2 mph N/A   Clear